Year,Month,Day,Hour,Minute,Value (Times are PST for temperature in C)
2021,06,07,00,00,9.30
2021,06,07,00,01,9.30
2021,06,07,00,02,9.30
2021,06,07,00,03,9.30
2021,06,07,00,04,9.20
2021,06,07,00,05,9.20
2021,06,07,00,06,9.20
2021,06,07,00,07,9.20
2021,06,07,00,08,9.20
2021,06,07,00,09,9.20
2021,06,07,00,10,9.20
2021,06,07,00,11,9.20
2021,06,07,00,12,9.20
2021,06,07,00,13,9.20
2021,06,07,00,14,9.10
2021,06,07,00,15,9.10
2021,06,07,00,16,9.10
2021,06,07,00,17,9.10
2021,06,07,00,18,9.10
2021,06,07,00,19,9.00
2021,06,07,00,20,9.00
2021,06,07,00,21,9.00
2021,06,07,00,22,9.00
2021,06,07,00,23,9.00
2021,06,07,00,24,9.00
2021,06,07,00,25,8.90
2021,06,07,00,26,8.90
2021,06,07,00,27,8.90
2021,06,07,00,28,8.90
2021,06,07,00,29,8.90
2021,06,07,00,30,8.80
2021,06,07,00,31,8.80
2021,06,07,00,32,8.80
2021,06,07,00,33,8.70
2021,06,07,00,34,8.70
2021,06,07,00,35,8.70
2021,06,07,00,36,8.70
2021,06,07,00,37,8.70
2021,06,07,00,38,8.70
2021,06,07,00,39,8.70
2021,06,07,00,40,8.70
2021,06,07,00,41,8.70
2021,06,07,00,42,8.70
2021,06,07,00,43,8.70
2021,06,07,00,44,8.60
2021,06,07,00,45,8.60
2021,06,07,00,46,8.60
2021,06,07,00,47,8.60
2021,06,07,00,48,8.50
2021,06,07,00,49,8.50
2021,06,07,00,50,8.50
2021,06,07,00,51,8.50
2021,06,07,00,52,8.40
2021,06,07,00,53,8.40
2021,06,07,00,54,8.40
2021,06,07,00,55,8.40
2021,06,07,00,56,8.40
2021,06,07,00,57,8.40
2021,06,07,00,58,8.30
2021,06,07,00,59,8.30
2021,06,07,01,00,8.30
2021,06,07,01,01,8.30
2021,06,07,01,02,8.20
2021,06,07,01,03,8.20
2021,06,07,01,04,8.20
2021,06,07,01,05,8.20
2021,06,07,01,06,8.20
2021,06,07,01,07,8.20
2021,06,07,01,08,8.20
2021,06,07,01,09,8.20
2021,06,07,01,10,8.10
2021,06,07,01,11,8.10
2021,06,07,01,12,8.10
2021,06,07,01,13,8.10
2021,06,07,01,14,8.10
2021,06,07,01,15,8.00
2021,06,07,01,16,8.00
2021,06,07,01,17,8.00
2021,06,07,01,18,8.00
2021,06,07,01,19,7.90
2021,06,07,01,20,7.90
2021,06,07,01,21,7.90
2021,06,07,01,22,7.90
2021,06,07,01,23,7.90
2021,06,07,01,24,7.80
2021,06,07,01,25,7.80
2021,06,07,01,26,7.80
2021,06,07,01,27,7.80
2021,06,07,01,28,7.80
2021,06,07,01,29,7.80
2021,06,07,01,30,7.80
2021,06,07,01,31,7.80
2021,06,07,01,32,7.80
2021,06,07,01,33,7.80
2021,06,07,01,34,7.80
2021,06,07,01,35,7.80
2021,06,07,01,36,7.80
2021,06,07,01,37,7.80
2021,06,07,01,38,7.80
2021,06,07,01,39,7.80
2021,06,07,01,40,7.70
2021,06,07,01,41,7.70
2021,06,07,01,42,7.70
2021,06,07,01,43,7.70
2021,06,07,01,44,7.70
2021,06,07,01,45,7.70
2021,06,07,01,46,7.70
2021,06,07,01,47,7.70
2021,06,07,01,48,7.60
2021,06,07,01,49,7.60
2021,06,07,01,50,7.60
2021,06,07,01,51,7.60
2021,06,07,01,52,7.60
2021,06,07,01,53,7.60
2021,06,07,01,54,7.60
2021,06,07,01,55,7.50
2021,06,07,01,56,7.50
2021,06,07,01,57,7.50
2021,06,07,01,58,7.50
2021,06,07,01,59,7.50
2021,06,07,02,00,7.50
2021,06,07,02,01,7.50
2021,06,07,02,02,7.50
2021,06,07,02,03,7.40
2021,06,07,02,04,7.40
2021,06,07,02,05,7.40
2021,06,07,02,06,7.40
2021,06,07,02,07,7.40
2021,06,07,02,08,7.40
2021,06,07,02,09,7.30
2021,06,07,02,10,7.30
2021,06,07,02,11,7.30
2021,06,07,02,12,7.30
2021,06,07,02,13,7.30
2021,06,07,02,14,7.30
2021,06,07,02,15,7.30
2021,06,07,02,16,7.30
2021,06,07,02,17,7.30
2021,06,07,02,18,7.30
2021,06,07,02,19,7.30
2021,06,07,02,20,7.30
2021,06,07,02,21,7.30
2021,06,07,02,22,7.30
2021,06,07,02,23,7.30
2021,06,07,02,24,7.30
2021,06,07,02,25,7.30
2021,06,07,02,26,7.30
2021,06,07,02,27,7.30
2021,06,07,02,28,7.20
2021,06,07,02,29,7.20
2021,06,07,02,30,7.10
2021,06,07,02,31,7.10
2021,06,07,02,32,7.10
2021,06,07,02,33,7.00
2021,06,07,02,34,7.00
2021,06,07,02,35,7.00
2021,06,07,02,36,6.90
2021,06,07,02,37,6.90
2021,06,07,02,38,6.80
2021,06,07,02,39,6.80
2021,06,07,02,40,6.80
2021,06,07,02,41,6.80
2021,06,07,02,42,6.80
2021,06,07,02,43,6.80
2021,06,07,02,44,6.80
2021,06,07,02,45,6.70
2021,06,07,02,46,6.70
2021,06,07,02,47,6.70
2021,06,07,02,48,6.70
2021,06,07,02,49,6.70
2021,06,07,02,50,6.60
2021,06,07,02,51,6.60
2021,06,07,02,52,6.60
2021,06,07,02,53,6.60
2021,06,07,02,54,6.60
2021,06,07,02,55,6.60
2021,06,07,02,56,6.60
2021,06,07,02,57,6.60
2021,06,07,02,58,6.60
2021,06,07,02,59,6.60
2021,06,07,03,00,6.50
2021,06,07,03,01,6.40
2021,06,07,03,02,6.40
2021,06,07,03,03,6.40
2021,06,07,03,04,6.40
2021,06,07,03,05,6.40
2021,06,07,03,06,6.40
2021,06,07,03,07,6.40
2021,06,07,03,08,6.40
2021,06,07,03,09,6.40
2021,06,07,03,10,6.40
2021,06,07,03,11,6.40
2021,06,07,03,12,6.40
2021,06,07,03,13,6.40
2021,06,07,03,14,6.40
2021,06,07,03,15,6.40
2021,06,07,03,16,6.40
2021,06,07,03,17,6.40
2021,06,07,03,18,6.40
2021,06,07,03,19,6.40
2021,06,07,03,20,6.30
2021,06,07,03,21,6.30
2021,06,07,03,22,6.30
2021,06,07,03,23,6.30
2021,06,07,03,24,6.30
2021,06,07,03,25,6.30
2021,06,07,03,26,6.20
2021,06,07,03,27,6.20
2021,06,07,03,28,6.20
2021,06,07,03,29,6.20
2021,06,07,03,30,6.20
2021,06,07,03,31,6.20
2021,06,07,03,32,6.20
2021,06,07,03,33,6.20
2021,06,07,03,34,6.20
2021,06,07,03,35,6.20
2021,06,07,03,36,6.20
2021,06,07,03,37,6.20
2021,06,07,03,38,6.20
2021,06,07,03,39,6.20
2021,06,07,03,40,6.10
2021,06,07,03,41,6.10
2021,06,07,03,42,6.10
2021,06,07,03,43,6.00
2021,06,07,03,44,6.00
2021,06,07,03,45,6.00
2021,06,07,03,46,6.00
2021,06,07,03,47,5.90
2021,06,07,03,48,5.90
2021,06,07,03,49,5.90
2021,06,07,03,50,5.90
2021,06,07,03,51,5.90
2021,06,07,03,52,5.90
2021,06,07,03,53,5.80
2021,06,07,03,54,5.80
2021,06,07,03,55,5.80
2021,06,07,03,56,5.80
2021,06,07,03,57,5.80
2021,06,07,03,58,5.80
2021,06,07,03,59,5.80
2021,06,07,04,00,5.80
2021,06,07,04,01,5.80
2021,06,07,04,02,5.80
2021,06,07,04,03,5.70
2021,06,07,04,04,5.70
2021,06,07,04,05,5.70
2021,06,07,04,06,5.70
2021,06,07,04,07,5.70
2021,06,07,04,08,5.70
2021,06,07,04,09,5.70
2021,06,07,04,10,5.70
2021,06,07,04,11,5.70
2021,06,07,04,12,5.70
2021,06,07,04,13,5.70
2021,06,07,04,14,5.70
2021,06,07,04,15,5.70
2021,06,07,04,16,5.70
2021,06,07,04,17,5.70
2021,06,07,04,18,5.70
2021,06,07,04,19,5.70
2021,06,07,04,20,5.70
2021,06,07,04,21,5.70
2021,06,07,04,22,5.70
2021,06,07,04,23,5.70
2021,06,07,04,24,5.60
2021,06,07,04,25,5.60
2021,06,07,04,26,5.60
2021,06,07,04,27,5.60
2021,06,07,04,28,5.60
2021,06,07,04,29,5.60
2021,06,07,04,30,5.60
2021,06,07,04,31,5.50
2021,06,07,04,32,5.50
2021,06,07,04,33,5.50
2021,06,07,04,34,5.50
2021,06,07,04,35,5.50
2021,06,07,04,36,5.50
2021,06,07,04,37,5.50
2021,06,07,04,38,5.50
2021,06,07,04,39,5.50
2021,06,07,04,40,5.50
2021,06,07,04,41,5.50
2021,06,07,04,42,5.50
2021,06,07,04,43,5.40
2021,06,07,04,44,5.40
2021,06,07,04,45,5.40
2021,06,07,04,46,5.40
2021,06,07,04,47,5.40
2021,06,07,04,48,5.40
2021,06,07,04,49,5.40
2021,06,07,04,50,5.30
2021,06,07,04,51,5.30
2021,06,07,04,52,5.30
2021,06,07,04,53,5.30
2021,06,07,04,54,5.30
2021,06,07,04,55,5.30
2021,06,07,04,56,5.30
2021,06,07,04,57,5.30
2021,06,07,04,58,5.30
2021,06,07,04,59,5.30
2021,06,07,05,00,5.30
2021,06,07,05,01,5.30
2021,06,07,05,02,5.30
2021,06,07,05,03,5.30
2021,06,07,05,04,5.30
2021,06,07,05,05,5.30
2021,06,07,05,06,5.30
2021,06,07,05,07,5.30
2021,06,07,05,08,5.30
2021,06,07,05,09,5.30
2021,06,07,05,10,5.30
2021,06,07,05,11,5.20
2021,06,07,05,12,5.20
2021,06,07,05,13,5.20
2021,06,07,05,14,5.20
2021,06,07,05,15,5.20
2021,06,07,05,16,5.20
2021,06,07,05,17,5.10
2021,06,07,05,18,5.10
2021,06,07,05,19,5.10
2021,06,07,05,20,5.10
2021,06,07,05,21,5.10
2021,06,07,05,22,5.10
2021,06,07,05,23,5.10
2021,06,07,05,24,5.10
2021,06,07,05,25,5.10
2021,06,07,05,26,5.10
2021,06,07,05,27,5.10
2021,06,07,05,28,5.10
2021,06,07,05,29,5.00
2021,06,07,05,30,4.90
2021,06,07,05,31,4.90
2021,06,07,05,32,4.90
2021,06,07,05,33,4.90
2021,06,07,05,34,4.90
2021,06,07,05,35,4.90
2021,06,07,05,36,4.90
2021,06,07,05,37,4.90
2021,06,07,05,38,4.90
2021,06,07,05,39,4.90
2021,06,07,05,40,4.90
2021,06,07,05,41,4.90
2021,06,07,05,42,4.90
2021,06,07,05,43,4.90
2021,06,07,05,44,4.90
2021,06,07,05,45,4.90
2021,06,07,05,46,4.90
2021,06,07,05,47,4.90
2021,06,07,05,48,4.90
2021,06,07,05,49,4.90
2021,06,07,05,50,4.90
2021,06,07,05,51,5.00
2021,06,07,05,52,5.10
2021,06,07,05,53,5.10
2021,06,07,05,54,5.10
2021,06,07,05,55,5.10
2021,06,07,05,56,5.10
2021,06,07,05,57,5.10
2021,06,07,05,58,5.10
2021,06,07,05,59,5.10
2021,06,07,06,00,5.20
2021,06,07,06,01,5.30
2021,06,07,06,02,5.30
2021,06,07,06,03,5.40
2021,06,07,06,04,5.50
2021,06,07,06,05,5.50
2021,06,07,06,06,5.60
2021,06,07,06,07,5.70
2021,06,07,06,08,5.70
2021,06,07,06,09,5.80
2021,06,07,06,10,5.90
2021,06,07,06,11,6.00
2021,06,07,06,12,6.00
2021,06,07,06,13,6.10
2021,06,07,06,14,6.10
2021,06,07,06,15,6.10
2021,06,07,06,16,6.20
2021,06,07,06,17,6.20
2021,06,07,06,18,6.20
2021,06,07,06,19,6.20
2021,06,07,06,20,6.20
2021,06,07,06,21,6.30
2021,06,07,06,22,6.40
2021,06,07,06,23,6.40
2021,06,07,06,24,6.50
2021,06,07,06,25,6.60
2021,06,07,06,26,6.70
2021,06,07,06,27,6.70
2021,06,07,06,28,6.80
2021,06,07,06,29,6.90
2021,06,07,06,30,7.00
2021,06,07,06,31,7.10
2021,06,07,06,32,7.10
2021,06,07,06,33,7.20
2021,06,07,06,34,7.20
2021,06,07,06,35,7.30
2021,06,07,06,36,7.30
2021,06,07,06,37,7.40
2021,06,07,06,38,7.40
2021,06,07,06,39,7.50
2021,06,07,06,40,7.50
2021,06,07,06,41,7.60
2021,06,07,06,42,7.60
2021,06,07,06,43,7.70
2021,06,07,06,44,7.70
2021,06,07,06,45,7.80
2021,06,07,06,46,7.80
2021,06,07,06,47,7.80
2021,06,07,06,48,7.80
2021,06,07,06,49,7.90
2021,06,07,06,50,7.90
2021,06,07,06,51,8.00
2021,06,07,06,52,8.10
2021,06,07,06,53,8.10
2021,06,07,06,54,8.20
2021,06,07,06,55,8.30
2021,06,07,06,56,8.30
2021,06,07,06,57,8.40
2021,06,07,06,58,8.50
2021,06,07,06,59,8.60
2021,06,07,07,00,8.60
2021,06,07,07,01,8.70
2021,06,07,07,02,8.70
2021,06,07,07,03,8.70
2021,06,07,07,04,8.70
2021,06,07,07,05,8.80
2021,06,07,07,06,8.80
2021,06,07,07,07,8.90
2021,06,07,07,08,8.90
2021,06,07,07,09,8.90
2021,06,07,07,10,9.00
2021,06,07,07,11,9.00
2021,06,07,07,12,9.10
2021,06,07,07,13,9.10
2021,06,07,07,14,9.20
2021,06,07,07,15,9.20
2021,06,07,07,16,9.30
2021,06,07,07,17,9.30
2021,06,07,07,18,9.40
2021,06,07,07,19,9.40
2021,06,07,07,20,9.50
2021,06,07,07,21,9.60
2021,06,07,07,22,9.60
2021,06,07,07,23,9.70
2021,06,07,07,24,9.70
2021,06,07,07,25,9.80
2021,06,07,07,26,9.80
2021,06,07,07,27,9.90
2021,06,07,07,28,9.90
2021,06,07,07,29,10.00
2021,06,07,07,30,10.10
2021,06,07,07,31,10.10
2021,06,07,07,32,10.10
2021,06,07,07,33,10.20
2021,06,07,07,34,10.20
2021,06,07,07,35,10.20
2021,06,07,07,36,10.20
2021,06,07,07,37,10.20
2021,06,07,07,38,10.20
2021,06,07,07,39,10.20
2021,06,07,07,40,10.20
2021,06,07,07,41,10.30
2021,06,07,07,42,10.30
2021,06,07,07,43,10.40
2021,06,07,07,44,10.40
2021,06,07,07,45,10.40
2021,06,07,07,46,10.40
2021,06,07,07,47,10.50
2021,06,07,07,48,10.60
2021,06,07,07,49,10.60
2021,06,07,07,50,10.60
2021,06,07,07,51,10.60
2021,06,07,07,52,10.70
2021,06,07,07,53,10.70
2021,06,07,07,54,10.80
2021,06,07,07,55,10.80
2021,06,07,07,56,10.80
2021,06,07,07,57,10.80
2021,06,07,07,58,10.80
2021,06,07,07,59,10.80
2021,06,07,08,00,10.80
2021,06,07,08,01,10.90
2021,06,07,08,02,10.90
2021,06,07,08,03,10.90
2021,06,07,08,04,10.90
2021,06,07,08,05,10.90
2021,06,07,08,06,10.90
2021,06,07,08,07,10.90
2021,06,07,08,08,10.80
2021,06,07,08,09,10.80
2021,06,07,08,10,10.80
2021,06,07,08,11,10.90
2021,06,07,08,12,10.90
2021,06,07,08,13,10.90
2021,06,07,08,14,10.90
2021,06,07,08,15,10.90
2021,06,07,08,16,10.90
2021,06,07,08,17,10.90
2021,06,07,08,18,10.90
2021,06,07,08,19,10.90
2021,06,07,08,20,10.90
2021,06,07,08,21,10.90
2021,06,07,08,22,11.00
2021,06,07,08,23,11.10
2021,06,07,08,24,11.10
2021,06,07,08,25,11.10
2021,06,07,08,26,11.20
2021,06,07,08,27,11.30
2021,06,07,08,28,11.30
2021,06,07,08,29,11.40
2021,06,07,08,30,11.40
2021,06,07,08,31,11.40
2021,06,07,08,32,11.40
2021,06,07,08,33,11.40
2021,06,07,08,34,11.40
2021,06,07,08,35,11.40
2021,06,07,08,36,11.40
2021,06,07,08,37,11.40
2021,06,07,08,38,11.40
2021,06,07,08,39,11.50
2021,06,07,08,40,11.60
2021,06,07,08,41,11.60
2021,06,07,08,42,11.70
2021,06,07,08,43,11.80
2021,06,07,08,44,11.80
2021,06,07,08,45,11.80
2021,06,07,08,46,11.80
2021,06,07,08,47,11.80
2021,06,07,08,48,11.80
2021,06,07,08,49,11.80
2021,06,07,08,50,11.80
2021,06,07,08,51,11.80
2021,06,07,08,52,11.90
2021,06,07,08,53,11.90
2021,06,07,08,54,11.90
2021,06,07,08,55,12.00
2021,06,07,08,56,12.00
2021,06,07,08,57,12.10
2021,06,07,08,58,12.20
2021,06,07,08,59,12.20
2021,06,07,09,00,12.30
2021,06,07,09,01,12.30
2021,06,07,09,02,12.30
2021,06,07,09,03,12.40
2021,06,07,09,04,12.40
2021,06,07,09,05,12.50
2021,06,07,09,06,12.50
2021,06,07,09,07,12.60
2021,06,07,09,08,12.60
2021,06,07,09,09,12.70
2021,06,07,09,10,12.70
2021,06,07,09,11,12.70
2021,06,07,09,12,12.70
2021,06,07,09,13,12.70
2021,06,07,09,14,12.60
2021,06,07,09,15,12.60
2021,06,07,09,16,12.60
2021,06,07,09,17,12.70
2021,06,07,09,18,12.70
2021,06,07,09,19,12.80
2021,06,07,09,20,12.80
2021,06,07,09,21,12.80
2021,06,07,09,22,12.80
2021,06,07,09,23,12.90
2021,06,07,09,24,12.90
2021,06,07,09,25,12.90
2021,06,07,09,26,12.90
2021,06,07,09,27,12.90
2021,06,07,09,28,13.00
2021,06,07,09,29,13.00
2021,06,07,09,30,13.00
2021,06,07,09,31,13.10
2021,06,07,09,32,13.10
2021,06,07,09,33,13.20
2021,06,07,09,34,13.20
2021,06,07,09,35,13.20
2021,06,07,09,36,13.30
2021,06,07,09,37,13.30
2021,06,07,09,38,13.40
2021,06,07,09,39,13.50
2021,06,07,09,40,13.50
2021,06,07,09,41,13.40
2021,06,07,09,42,13.30
2021,06,07,09,43,13.20
2021,06,07,09,44,13.10
2021,06,07,09,45,13.00
2021,06,07,09,46,13.00
2021,06,07,09,47,13.00
2021,06,07,09,48,13.00
2021,06,07,09,49,13.10
2021,06,07,09,50,13.20
2021,06,07,09,51,13.30
2021,06,07,09,52,13.30
2021,06,07,09,53,13.40
2021,06,07,09,54,13.40
2021,06,07,09,55,13.40
2021,06,07,09,56,13.40
2021,06,07,09,57,13.40
2021,06,07,09,58,13.40
2021,06,07,09,59,13.50
2021,06,07,10,00,13.60
2021,06,07,10,01,13.60
2021,06,07,10,02,13.70
2021,06,07,10,03,13.70
2021,06,07,10,04,13.70
2021,06,07,10,05,13.70
2021,06,07,10,06,13.60
2021,06,07,10,07,13.60
2021,06,07,10,08,13.60
2021,06,07,10,09,13.60
2021,06,07,10,10,13.70
2021,06,07,10,11,13.70
2021,06,07,10,12,13.70
2021,06,07,10,13,13.70
2021,06,07,10,14,13.80
2021,06,07,10,15,13.90
2021,06,07,10,16,13.80
2021,06,07,10,17,13.80
2021,06,07,10,18,13.80
2021,06,07,10,19,13.90
2021,06,07,10,20,13.90
2021,06,07,10,21,14.00
2021,06,07,10,22,14.10
2021,06,07,10,23,14.20
2021,06,07,10,24,14.30
2021,06,07,10,25,14.40
2021,06,07,10,26,14.50
2021,06,07,10,27,14.50
2021,06,07,10,28,14.50
2021,06,07,10,29,14.40
2021,06,07,10,30,14.40
2021,06,07,10,31,14.30
2021,06,07,10,32,14.30
2021,06,07,10,33,14.30
2021,06,07,10,34,14.30
2021,06,07,10,35,14.40
2021,06,07,10,36,14.40
2021,06,07,10,37,14.40
2021,06,07,10,38,14.40
2021,06,07,10,39,14.40
2021,06,07,10,40,14.40
2021,06,07,10,41,14.40
2021,06,07,10,42,14.40
2021,06,07,10,43,14.30
2021,06,07,10,44,14.40
2021,06,07,10,45,14.50
2021,06,07,10,46,14.60
2021,06,07,10,47,14.70
2021,06,07,10,48,14.80
2021,06,07,10,49,14.80
2021,06,07,10,50,14.80
2021,06,07,10,51,14.80
2021,06,07,10,52,14.80
2021,06,07,10,53,14.80
2021,06,07,10,54,14.80
2021,06,07,10,55,14.70
2021,06,07,10,56,14.70
2021,06,07,10,57,14.80
2021,06,07,10,58,14.80
2021,06,07,10,59,14.80
2021,06,07,11,00,14.70
2021,06,07,11,01,14.70
2021,06,07,11,02,14.60
2021,06,07,11,03,14.60
2021,06,07,11,04,14.60
2021,06,07,11,05,14.60
2021,06,07,11,06,14.60
2021,06,07,11,07,14.50
2021,06,07,11,08,14.50
2021,06,07,11,09,14.60
2021,06,07,11,10,14.60
2021,06,07,11,11,14.70
2021,06,07,11,12,14.60
2021,06,07,11,13,14.70
2021,06,07,11,14,14.70
2021,06,07,11,15,14.70
2021,06,07,11,16,14.70
2021,06,07,11,17,14.70
2021,06,07,11,18,14.70
2021,06,07,11,19,14.60
2021,06,07,11,20,14.60
2021,06,07,11,21,14.60
2021,06,07,11,22,14.60
2021,06,07,11,23,14.60
2021,06,07,11,24,14.60
2021,06,07,11,25,14.70
2021,06,07,11,26,14.80
2021,06,07,11,27,14.80
2021,06,07,11,28,15.00
2021,06,07,11,29,15.10
2021,06,07,11,30,15.20
2021,06,07,11,31,15.30
2021,06,07,11,32,15.30
2021,06,07,11,33,15.30
2021,06,07,11,34,15.40
2021,06,07,11,35,15.40
2021,06,07,11,36,15.50
2021,06,07,11,37,15.60
2021,06,07,11,38,15.80
2021,06,07,11,39,15.80
2021,06,07,11,40,15.80
2021,06,07,11,41,15.80
2021,06,07,11,42,15.80
2021,06,07,11,43,15.80
2021,06,07,11,44,15.80
2021,06,07,11,45,15.90
2021,06,07,11,46,15.90
2021,06,07,11,47,15.90
2021,06,07,11,48,15.90
2021,06,07,11,49,15.80
2021,06,07,11,50,15.70
2021,06,07,11,51,15.60
2021,06,07,11,52,15.60
2021,06,07,11,53,15.60
2021,06,07,11,54,15.50
2021,06,07,11,55,15.30
2021,06,07,11,56,15.20
2021,06,07,11,57,15.20
2021,06,07,11,58,15.20
2021,06,07,11,59,15.20
2021,06,07,12,00,15.10
2021,06,07,12,01,15.00
2021,06,07,12,02,14.90
2021,06,07,12,03,14.80
2021,06,07,12,04,14.70
2021,06,07,12,05,14.60
2021,06,07,12,06,14.50
2021,06,07,12,07,14.30
2021,06,07,12,08,14.20
2021,06,07,12,09,14.20
2021,06,07,12,10,14.20
2021,06,07,12,11,14.20
2021,06,07,12,12,14.20
2021,06,07,12,13,14.20
2021,06,07,12,14,14.30
2021,06,07,12,15,14.40
2021,06,07,12,16,14.60
2021,06,07,12,17,14.80
2021,06,07,12,18,14.90
2021,06,07,12,19,15.00
2021,06,07,12,20,15.10
2021,06,07,12,21,15.20
2021,06,07,12,22,15.30
2021,06,07,12,23,15.40
2021,06,07,12,24,15.40
2021,06,07,12,25,15.50
2021,06,07,12,26,15.50
2021,06,07,12,27,15.60
2021,06,07,12,28,15.70
2021,06,07,12,29,15.80
2021,06,07,12,30,15.70
2021,06,07,12,31,15.70
2021,06,07,12,32,15.60
2021,06,07,12,33,15.60
2021,06,07,12,34,15.60
2021,06,07,12,35,15.40
2021,06,07,12,36,15.30
2021,06,07,12,37,15.10
2021,06,07,12,38,15.00
2021,06,07,12,39,14.80
2021,06,07,12,40,14.60
2021,06,07,12,41,14.50
2021,06,07,12,42,14.40
2021,06,07,12,43,14.40
2021,06,07,12,44,14.40
2021,06,07,12,45,14.40
2021,06,07,12,46,14.40
2021,06,07,12,47,14.40
2021,06,07,12,48,14.50
2021,06,07,12,49,14.40
2021,06,07,12,50,14.50
2021,06,07,12,51,14.60
2021,06,07,12,52,14.60
2021,06,07,12,53,14.70
2021,06,07,12,54,14.80
2021,06,07,12,55,14.70
2021,06,07,12,56,14.80
2021,06,07,12,57,14.80
2021,06,07,12,58,14.80
2021,06,07,12,59,14.90
2021,06,07,13,00,15.00
2021,06,07,13,01,15.10
2021,06,07,13,02,15.10
2021,06,07,13,03,15.10
2021,06,07,13,04,15.10
2021,06,07,13,05,15.00
2021,06,07,13,06,15.10
2021,06,07,13,07,15.10
2021,06,07,13,08,15.20
2021,06,07,13,09,15.30
2021,06,07,13,10,15.40
2021,06,07,13,11,15.50
2021,06,07,13,12,15.60
2021,06,07,13,13,15.70
2021,06,07,13,14,15.80
2021,06,07,13,15,15.80
2021,06,07,13,16,15.90
2021,06,07,13,17,16.00
2021,06,07,13,18,16.10
2021,06,07,13,19,16.00
2021,06,07,13,20,15.90
2021,06,07,13,21,15.70
2021,06,07,13,22,15.60
2021,06,07,13,23,15.50
2021,06,07,13,24,15.40
2021,06,07,13,25,15.30
2021,06,07,13,26,15.20
2021,06,07,13,27,15.10
2021,06,07,13,28,15.00
2021,06,07,13,29,14.90
2021,06,07,13,30,15.00
2021,06,07,13,31,15.00
2021,06,07,13,32,15.00
2021,06,07,13,33,15.00
2021,06,07,13,34,15.00
2021,06,07,13,35,15.00
2021,06,07,13,36,15.00
2021,06,07,13,37,15.10
2021,06,07,13,38,15.10
2021,06,07,13,39,15.20
2021,06,07,13,40,15.10
2021,06,07,13,41,15.10
2021,06,07,13,42,15.10
2021,06,07,13,43,15.00
2021,06,07,13,44,14.90
2021,06,07,13,45,14.80
2021,06,07,13,46,14.80
2021,06,07,13,47,14.80
2021,06,07,13,48,14.80
2021,06,07,13,49,14.80
2021,06,07,13,50,14.80
2021,06,07,13,51,14.80
2021,06,07,13,52,14.80
2021,06,07,13,53,14.80
2021,06,07,13,54,14.90
2021,06,07,13,55,15.10
2021,06,07,13,56,15.30
2021,06,07,13,57,15.40
2021,06,07,13,58,15.50
2021,06,07,13,59,15.60
2021,06,07,14,00,15.70
2021,06,07,14,01,15.70
2021,06,07,14,02,15.80
2021,06,07,14,03,15.80
2021,06,07,14,04,15.70
2021,06,07,14,05,15.70
2021,06,07,14,06,15.70
2021,06,07,14,07,15.60
2021,06,07,14,08,15.60
2021,06,07,14,09,15.60
2021,06,07,14,10,15.70
2021,06,07,14,11,15.80
2021,06,07,14,12,16.00
2021,06,07,14,13,16.10
2021,06,07,14,14,16.20
2021,06,07,14,15,16.30
2021,06,07,14,16,16.40
2021,06,07,14,17,16.40
2021,06,07,14,18,16.40
2021,06,07,14,19,16.40
2021,06,07,14,20,16.40
2021,06,07,14,21,16.40
2021,06,07,14,22,16.40
2021,06,07,14,23,16.40
2021,06,07,14,24,16.50
2021,06,07,14,25,16.60
2021,06,07,14,26,16.70
2021,06,07,14,27,16.60
2021,06,07,14,28,16.50
2021,06,07,14,29,16.40
2021,06,07,14,30,16.30
2021,06,07,14,31,16.30
2021,06,07,14,32,16.30
2021,06,07,14,33,16.40
2021,06,07,14,34,16.40
2021,06,07,14,35,16.50
2021,06,07,14,36,16.70
2021,06,07,14,37,16.70
2021,06,07,14,38,16.80
2021,06,07,14,39,16.90
2021,06,07,14,40,17.00
2021,06,07,14,41,17.00
2021,06,07,14,42,17.10
2021,06,07,14,43,17.10
2021,06,07,14,44,17.00
2021,06,07,14,45,17.00
2021,06,07,14,46,17.00
2021,06,07,14,47,17.00
2021,06,07,14,48,16.90
2021,06,07,14,49,16.80
2021,06,07,14,50,16.80
2021,06,07,14,51,16.80
2021,06,07,14,52,16.90
2021,06,07,14,53,16.90
2021,06,07,14,54,17.00
2021,06,07,14,55,17.00
2021,06,07,14,56,17.00
2021,06,07,14,57,17.00
2021,06,07,14,58,16.90
2021,06,07,14,59,16.80
2021,06,07,15,00,16.60
2021,06,07,15,01,16.40
2021,06,07,15,02,16.30
2021,06,07,15,03,16.20
2021,06,07,15,04,16.30
2021,06,07,15,05,16.40
2021,06,07,15,06,16.40
2021,06,07,15,07,16.40
2021,06,07,15,08,16.40
2021,06,07,15,09,16.30
2021,06,07,15,10,16.10
2021,06,07,15,11,16.10
2021,06,07,15,12,16.10
2021,06,07,15,13,16.00
2021,06,07,15,14,15.90
2021,06,07,15,15,15.90
2021,06,07,15,16,15.90
2021,06,07,15,17,16.00
2021,06,07,15,18,16.10
2021,06,07,15,19,16.10
2021,06,07,15,20,16.10
2021,06,07,15,21,16.20
2021,06,07,15,22,16.30
2021,06,07,15,23,16.30
2021,06,07,15,24,16.40
2021,06,07,15,25,16.40
2021,06,07,15,26,16.40
2021,06,07,15,27,16.50
2021,06,07,15,28,16.60
2021,06,07,15,29,16.70
2021,06,07,15,30,16.80
2021,06,07,15,31,16.90
2021,06,07,15,32,17.00
2021,06,07,15,33,17.00
2021,06,07,15,34,17.00
2021,06,07,15,35,17.00
2021,06,07,15,36,17.00
2021,06,07,15,37,16.90
2021,06,07,15,38,16.90
2021,06,07,15,39,16.90
2021,06,07,15,40,16.80
2021,06,07,15,41,16.80
2021,06,07,15,42,16.80
2021,06,07,15,43,16.80
2021,06,07,15,44,16.70
2021,06,07,15,45,16.70
2021,06,07,15,46,16.70
2021,06,07,15,47,16.60
2021,06,07,15,48,16.60
2021,06,07,15,49,16.60
2021,06,07,15,50,16.60
2021,06,07,15,51,16.50
2021,06,07,15,52,16.40
2021,06,07,15,53,16.50
2021,06,07,15,54,16.40
2021,06,07,15,55,16.20
2021,06,07,15,56,16.00
2021,06,07,15,57,15.90
2021,06,07,15,58,15.80
2021,06,07,15,59,15.80
2021,06,07,16,00,15.80
2021,06,07,16,01,15.80
2021,06,07,16,02,15.80
2021,06,07,16,03,15.80
2021,06,07,16,04,15.90
2021,06,07,16,05,15.80
2021,06,07,16,06,15.80
2021,06,07,16,07,15.80
2021,06,07,16,08,15.80
2021,06,07,16,09,15.80
2021,06,07,16,10,15.70
2021,06,07,16,11,15.70
2021,06,07,16,12,15.60
2021,06,07,16,13,15.40
2021,06,07,16,14,15.30
2021,06,07,16,15,15.40
2021,06,07,16,16,15.30
2021,06,07,16,17,15.40
2021,06,07,16,18,15.50
2021,06,07,16,19,15.60
2021,06,07,16,20,15.60
2021,06,07,16,21,15.70
2021,06,07,16,22,15.80
2021,06,07,16,23,15.80
2021,06,07,16,24,15.80
2021,06,07,16,25,15.90
2021,06,07,16,26,15.90
2021,06,07,16,27,15.90
2021,06,07,16,28,15.90
2021,06,07,16,29,15.80
2021,06,07,16,30,15.80
2021,06,07,16,31,15.60
2021,06,07,16,32,15.40
2021,06,07,16,33,15.30
2021,06,07,16,34,15.30
2021,06,07,16,35,15.30
2021,06,07,16,36,15.30
2021,06,07,16,37,15.30
2021,06,07,16,38,15.30
2021,06,07,16,39,15.30
2021,06,07,16,40,15.30
2021,06,07,16,41,15.40
2021,06,07,16,42,15.50
2021,06,07,16,43,15.60
2021,06,07,16,44,15.60
2021,06,07,16,45,15.70
2021,06,07,16,46,15.60
2021,06,07,16,47,15.60
2021,06,07,16,48,15.60
2021,06,07,16,49,15.60
2021,06,07,16,50,15.60
2021,06,07,16,51,15.70
2021,06,07,16,52,15.70
2021,06,07,16,53,15.80
2021,06,07,16,54,15.80
2021,06,07,16,55,15.80
2021,06,07,16,56,15.70
2021,06,07,16,57,15.60
2021,06,07,16,58,15.60
2021,06,07,16,59,15.60
2021,06,07,17,00,15.60
2021,06,07,17,01,15.60
2021,06,07,17,02,15.60
2021,06,07,17,03,15.60
2021,06,07,17,04,15.60
2021,06,07,17,05,15.60
2021,06,07,17,06,15.60
2021,06,07,17,07,15.60
2021,06,07,17,08,15.60
2021,06,07,17,09,15.60
2021,06,07,17,10,15.60
2021,06,07,17,11,15.60
2021,06,07,17,12,15.70
2021,06,07,17,13,15.70
2021,06,07,17,14,15.80
2021,06,07,17,15,15.80
2021,06,07,17,16,15.80
2021,06,07,17,17,15.80
2021,06,07,17,18,15.90
2021,06,07,17,19,16.00
2021,06,07,17,20,16.10
2021,06,07,17,21,16.10
2021,06,07,17,22,16.20
2021,06,07,17,23,16.30
2021,06,07,17,24,16.40
2021,06,07,17,25,16.40
2021,06,07,17,26,16.50
2021,06,07,17,27,16.60
2021,06,07,17,28,16.70
2021,06,07,17,29,16.70
2021,06,07,17,30,16.70
2021,06,07,17,31,16.70
2021,06,07,17,32,16.70
2021,06,07,17,33,16.70
2021,06,07,17,34,16.70
2021,06,07,17,35,16.70
2021,06,07,17,36,16.70
2021,06,07,17,37,16.70
2021,06,07,17,38,16.70